Ketchikan, AK

8:32 AM AKDT on October 16, 2018 (GMT -0800)
Ketchikan International

Weather History for PAKT - September, 2018

Change the Weather History Date:

Thursday, September 27, 2018

  Actual Average Record
Temperature  
Mean Temperature 56 °F -  
Max Temperature 60 °F 56 °F 65 °F (1965)
Min Temperature 53 °F 44 °F 34 °F (1983)
Degree Days  
Heating Degree Days 8    
Growing Degree Days 6 (Base 50)    
Moisture  
Dew Point 53 °F    
Average Humidity 93    
Maximum Humidity 100    
Minimum Humidity 77    
Precipitation  
Precipitation 0.06 in - - ()
Sea Level Pressure  
Sea Level Pressure 30.29 in    
Wind  
Wind Speed 4 mph (NNW)    
Max Wind Speed 12 mph    
Max Gust Speed -    
Visibility 7 miles    
Events Rain    
Averages and records for this station are not official NWS values.
T = Trace of Precipitation, MM = Missing Value Source: NWS Daily Summary

Daily Weather History Graph

Daily Weather History Graph

Search for Another Location

Airport or City:

Astronomy

Sep. 27, 2018 Rise Set
Actual Time 6:42 AM AKDT 6:32 PM AKDT
Civil Twilight 6:05 AM AKDT 7:08 PM AKDT
Nautical Twilight 5:22 AM AKDT 7:51 PM AKDT
Astronomical Twilight 4:37 AM AKDT 8:35 PM AKDT
Moon 8:00 PM AKDT (9/27) 9:30 AM AKDT (9/27)
Length of Visible Light 13h 02m
Length of Day
11h 50m
Waning Gibbous, 92% of the Moon is Illuminated
Sep 27
Waning Gibbous
Oct 2
Last Quarter
Oct 8
New
Oct 16
First Quarter
Oct 24
Full

Hourly Weather History & Observations

Time (AKDT) Temp. Dew Point Humidity Pressure Visibility Wind Dir Wind Speed Gust Speed Precip Events Conditions
12:07 AM 54.0 °F 53.1 °F 97% 30.28 in 3.0 mi Calm Calm - N/A   Overcast
12:14 AM 54.0 °F 53.1 °F 97% 30.27 in 5.0 mi SE 3.5 mph - N/A   Overcast
12:53 AM 54.0 °F 54.0 °F 100% 30.27 in 10.0 mi SSE 3.5 mph - N/A   Overcast
1:53 AM 54.0 °F 54.0 °F 100% 30.29 in 5.0 mi Calm Calm - N/A   Overcast
2:29 AM 55.0 °F 54.0 °F 96% 30.29 in 1.8 mi Calm Calm - 0.00 in Rain Light Rain
2:34 AM 55.0 °F 54.0 °F 96% 30.29 in 2.0 mi Calm Calm - 0.01 in   Overcast
2:38 AM 55.0 °F 54.0 °F 96% 30.28 in 1.8 mi Calm Calm - 0.01 in   Overcast
2:49 AM 55.4 °F 53.6 °F 94% 30.29 in 2.0 mi Calm Calm - 0.01 in Rain Light Rain
2:53 AM 55.0 °F 54.0 °F 96% 30.30 in 2.5 mi Calm Calm - 0.01 in Rain Light Rain
3:12 AM 55.0 °F 53.1 °F 93% 30.29 in 1.5 mi NW 3.5 mph - 0.01 in Rain Light Rain
3:53 AM 54.0 °F 53.1 °F 97% 30.30 in 1.2 mi NW 5.8 mph - 0.03 in Rain Light Rain
4:12 AM 55.0 °F 54.0 °F 96% 30.30 in 2.5 mi NNW 8.1 mph - 0.01 in Rain Light Rain
4:30 AM 55.0 °F 54.0 °F 96% 30.30 in 3.0 mi NNW 6.9 mph - 0.02 in   Overcast
4:51 AM 55.4 °F 53.6 °F 94% 30.30 in 2.5 mi NNW 6.9 mph - 0.02 in   Overcast
4:53 AM 55.0 °F 54.0 °F 96% 30.30 in 3.0 mi NNW 6.9 mph - 0.02 in   Overcast
5:02 AM 55.0 °F 54.0 °F 96% 30.30 in 3.0 mi NNW 5.8 mph - N/A   Overcast
5:18 AM 55.0 °F 54.0 °F 96% 30.30 in 6.0 mi NNW 8.1 mph - N/A   Overcast
5:46 AM 55.0 °F 53.1 °F 93% 30.30 in 10.0 mi NNW 6.9 mph - N/A   Overcast
5:53 AM 55.0 °F 53.1 °F 93% 30.30 in 10.0 mi NNW 6.9 mph - N/A   Overcast
6:02 AM 55.0 °F 53.1 °F 93% 30.30 in 10.0 mi NW 5.8 mph - N/A   Overcast
6:07 AM 55.4 °F 53.6 °F 94% 30.30 in 10.0 mi NNW 5.8 mph - N/A   Overcast
6:51 AM 53.6 °F 53.6 °F 100% 30.30 in 10.0 mi NNW 6.9 mph - N/A   Overcast
6:53 AM 53.6 °F 53.6 °F 100% 30.31 in 10.0 mi NNW 6.9 mph - N/A   Overcast
7:53 AM 53.6 °F 53.6 °F 100% 30.32 in 10.0 mi NNW 6.9 mph - N/A   Overcast
8:53 AM 55.4 °F 53.6 °F 94% 30.32 in 10.0 mi North 8.1 mph - N/A   Mostly Cloudy
9:53 AM 55.4 °F 53.6 °F 94% 30.33 in 10.0 mi NNW 8.1 mph - N/A   Mostly Cloudy
10:53 AM 59.0 °F 55.0 °F 87% 30.32 in 10.0 mi NW 9.2 mph - N/A   Scattered Clouds
11:53 AM 59.0 °F 55.0 °F 87% 30.33 in 10.0 mi NNW 10.4 mph - N/A   Scattered Clouds
12:53 PM 57.9 °F 54.0 °F 87% 30.33 in 10.0 mi NNW 11.5 mph - N/A   Scattered Clouds
1:53 PM 60.8 °F 53.6 °F 77% 30.32 in 10.0 mi NW 9.2 mph - N/A   Scattered Clouds
2:53 PM 59.0 °F 53.6 °F 82% 30.31 in 10.0 mi NW 8.1 mph - N/A   Scattered Clouds
3:53 PM 57.2 °F 53.6 °F 88% 30.30 in 10.0 mi NW 9.2 mph - N/A   Partly Cloudy
4:53 PM 55.4 °F 51.8 °F 88% 30.29 in 10.0 mi NW 8.1 mph - N/A   Clear
5:53 PM 55.4 °F 51.8 °F 88% 30.27 in 10.0 mi NW 8.1 mph - N/A   Clear
6:53 PM 54.0 °F 52.0 °F 93% 30.27 in 10.0 mi NW 8.1 mph - N/A   Clear
7:53 PM 54.0 °F 52.0 °F 93% 30.27 in 10.0 mi NW 6.9 mph - N/A   Clear
8:53 PM 54.0 °F 51.1 °F 90% 30.26 in 10.0 mi NW 4.6 mph - N/A   Clear
9:53 PM 54.0 °F 51.1 °F 90% 30.27 in 10.0 mi WNW 9.2 mph - N/A   Clear
10:53 PM 53.1 °F 51.1 °F 93% 30.25 in 10.0 mi NW 9.2 mph - N/A   Clear
11:53 PM 53.1 °F 51.1 °F 93% 30.25 in 10.0 mi NW 8.1 mph - N/A   Clear